Weather History for Columbia, MO

Change the Weather History Date:

Sunday, February 19, 2012

  Actual Average Record
Temperature  
Mean Temperature 38 °F 36 °F  
Max Temperature 47 °F 45 °F 76 °F (1930)
Min Temperature 29 °F 26 °F -6 °F (1903)
Degree Days  
Heating Degree Days 27 29  
Month to date heating degree days 528 608  
Since 1 July heating degree days 3149 3697  
Cooling Degree Days 0 0  
Month to date cooling degree days 0 0  
Year to date cooling degree days 0 0  
Moisture  
Dew Point 22 °F    
Average Humidity 60    
Maximum Humidity 85    
Minimum Humidity 34    
Precipitation  
Precipitation 0.00 in 0.08 in 1.80 in (1892)
Month to date precipitation 2.45 1.47  
Year to date precipitation 3.19 3.39  
Snow  
Snow 0.00 in 0.20 in 11.80 in (1938)
Month to date snowfall 3.7 3.5  
Since 1 July snowfall 6.6 14.9  
Snow Depth 0.00 in    
Sea Level Pressure  
Sea Level Pressure 30.13 in    
Wind  
Wind Speed 7 mph (ENE)    
Max Wind Speed 12 mph    
Max Gust Speed 15 mph    
Visibility 10 miles    
Events      
T = Trace of Precipitation, MM = Missing Value Source: NWS Daily Summary

Daily Weather History Graph

Daily Weather History Graph

Search for Another Location

Airport:

Trip Planner

Search our weather history database for the weather conditions in past years. The results will help you decide how hot, cold, wet, or windy it might be!

Date:

Astronomy

Feb. 19, 2012 Rise Set
Actual Time 6:55 AM CST 5:50 PM CST
Civil Twilight 6:28 AM CST 6:17 PM CST
Nautical Twilight 5:57 AM CST 6:48 PM CST
Astronomical Twilight 5:26 AM CST 7:19 PM CST
Moon 5:15 AM CST (2/19) 3:53 PM CST (2/19)
Length of Visible Light 11h 49m
Length of Day
10h 54m
Waning Crescent, 5% of the Moon is Illuminated
Feb 19
Waning Crescent
Feb 21
New
Feb 29
First Quarter
Mar 8
Full
Mar 14
Last Quarter

Hourly Weather History & Observations

Time (CST) Temp. Windchill Dew Point Humidity Pressure Visibility Wind Dir Wind Speed Gust Speed Precip Events Conditions
12:54 AM 33.1 °F 26.1 °F 24.1 °F 70% 30.12 in 10.0 mi ENE 8.1 mph - N/A   Mostly Cloudy
1:54 AM 33.1 °F 26.1 °F 24.1 °F 70% 30.12 in 10.0 mi ENE 8.1 mph - N/A   Mostly Cloudy
2:54 AM 32.0 °F 24.2 °F 24.8 °F 75% 30.10 in 10.0 mi ENE 9.2 mph - N/A   Scattered Clouds
3:54 AM 30.9 °F 25.2 °F 24.1 °F 76% 30.12 in 10.0 mi NE 5.8 mph - N/A   Mostly Cloudy
4:54 AM 30.9 °F 24.3 °F 24.1 °F 76% 30.13 in 10.0 mi NE 6.9 mph - N/A   Overcast
5:54 AM 28.9 °F 22.8 °F 24.1 °F 82% 30.14 in 10.0 mi NNE 5.8 mph - N/A   Partly Cloudy
6:54 AM 30.2 °F 23.4 °F 24.8 °F 80% 30.11 in 10.0 mi NE 6.9 mph - N/A   Overcast
7:54 AM 28.9 °F 22.8 °F 24.1 °F 82% 30.15 in 10.0 mi ENE 5.8 mph - N/A   Mostly Cloudy
8:54 AM 33.1 °F 28.7 °F 25.0 °F 72% 30.16 in 10.0 mi NNE 4.6 mph - N/A   Clear
9:54 AM 37.0 °F 33.3 °F 23.0 °F 57% 30.17 in 10.0 mi ENE 4.6 mph - N/A   Clear
10:54 AM 39.9 °F 37.8 °F 21.9 °F 49% 30.18 in 10.0 mi Variable 3.5 mph - N/A   Clear
11:54 AM 42.1 °F 36.6 °F 23.0 °F 47% 30.17 in 10.0 mi NE 9.2 mph - N/A   Clear
12:54 PM 45.0 °F 40.6 °F 24.1 °F 44% 30.13 in 10.0 mi NE 8.1 mph - N/A   Clear
1:54 PM 45.0 °F 42.6 °F 19.0 °F 36% 30.12 in 10.0 mi Variable 4.6 mph - N/A   Clear
2:54 PM 46.0 °F 43.9 °F 19.0 °F 34% 30.11 in 10.0 mi Variable 4.6 mph - N/A   Clear
3:54 PM 45.0 °F 41.2 °F 21.9 °F 40% 30.12 in 10.0 mi NE 6.9 mph - N/A   Clear
4:54 PM 45.0 °F 42.6 °F 21.0 °F 39% 30.12 in 10.0 mi NE 4.6 mph - N/A   Clear
5:54 PM 39.0 °F 34.8 °F 23.0 °F 53% 30.12 in 10.0 mi ENE 5.8 mph - N/A   Clear
6:54 PM 36.0 °F 31.1 °F 21.0 °F 55% 30.13 in 10.0 mi East 5.8 mph - N/A   Clear
7:54 PM 35.1 °F 30.1 °F 19.9 °F 54% 30.13 in 10.0 mi East 5.8 mph - N/A   Clear
8:54 PM 33.8 °F 26.4 °F 19.4 °F 56% 30.10 in 10.0 mi East 9.2 mph - N/A   Clear
9:54 PM 34.0 °F 26.6 °F 19.9 °F 56% 30.11 in 10.0 mi East 9.2 mph - N/A   Clear
10:54 PM 34.0 °F 27.2 °F 19.9 °F 56% 30.12 in 10.0 mi ESE 8.1 mph - N/A   Clear
11:54 PM 30.0 °F 23.2 °F 19.9 °F 66% 30.14 in 10.0 mi SE 6.9 mph - N/A   Clear